DELTA 1 DEB, 10655

Orbit data source: Space-Track

DELTA 1 DEB, 10655 is space debris in SSO originally from a launch on Thu, 29 Jul 1976 UTC launched from the Air Force Western Test Range (AFWTR). Debris objects in space refer to the collection of defunct objects orbiting the Earth. Examples of debris include non-operational satellites, rocket bodies, and fragments generated from explosions, collisions, or faulty payload assembly.

Loading next visibility...
Identifier
10655, 1976-077R
Orbit
SSO
Country
Flag of USUS
Related business
Manufacturer
Unknown
Mission
Spacecraft
Bus & Motor
Unknown
Mass
Unknown
Launch date (UTC)
1976-07-29 (49 years ago)
Launch vehicle
Unknown
Launch site
Air Force Western Test Range (AFWTR)
Object type
Payload
Rocket body
Debris
Shape & HBR
Unknown shape, 0.2 m
Radar Cross Section
Medium (>0.1 m² and <1 m²)

Expand to show TLE details & history
Last TLE update: 16 hours ago

TLE from 16 hours ago
0 DELTA 1 DEB
1 10655U 76077R   25292.19518109  .00000130  00000-0  16751-2 0  9994
2 10655 102.7719  23.8406 0274387 164.4010 254.9497 12.11365207177076
Epoch: 2025-10-19T04:41Z
TLE epoch observation values (Epoch: 2025-10-19T04:41:03.646Z)
Latitude
54.36219°
Longitude
-92.68088°
Altitude
1,701.699 km
Speed
7.002 km/s
True Right ascension
00h 21m 59s
True Declination
54° 13' 06"
Sunlit
Object was in full shadow at epoch
Visualization orbit readout
Latitude
Unknown
Longitude
Unknown
Altitude
Unknown
Speed
Unknown
Apparent Right ascension
Unknown
Apparent Declination
Unknown
Sunlit
N/A
Visualization observer readout
Local Sidereal Time
15:51:54
Azimuth
Unknown
Elevation
Unknown
Doppler factor
Unknown
Orbital elements
Apogee altitude
1,847.709 km
Perigee altitude
1,408.351 km
Semi-major axis
8,006.167 km
Eccentricity
0.02744
Inclination
102.7719°
RAAN
23.8406°
Arg. of periapsis
164.401°
True anomaly
251.9415°
Mean anomaly
254.9497°
Eccentric anomaly
253.44277°
Mean motion
3.02975 °/min
Orbital period
118.82 mins
BSTAR
0.0016751
Loading maneuver chart data...
Computing Atmospheric mass density...
Loading historical data...
Loading historical data...
Loading historical data...
Loading historical data...
Loading historical data...
Loading historical data...
Loading historical data...

Documentation

Showing up to 5 results
|